Location: Centerville
(32.8776°N, 96.6203°W)
Time: 10:07:29
(UTC+00:00)

Cosmos 2237 - Pass Details

Date: 23 October 2021
Orbit: 845 x 856 km, 70.8° (Epoch: 08 December)

Event Time Altitude Azimuth Distance (km) Brightness Sun altitude
Exits shadow 09:32:48 - 2° (N) 3,310 7.4 -39.2°
Reaches altitude 10° 09:36:25 10° 28° (NNE) 2,490 7.0 -38.5°
Maximum altitude 09:38:56 13° 55° (NE) 2,283 7.0 -37.9°
Drops below altitude 10° 09:41:27 10° 81° (E) 2,483 7.4 -37.4°
Sets 09:45:27 0° 109° (ESE) 3,413 8.1 -36.6°
